TOM070 EGKK-KMLB

Flight info

Callsign TOM070
Flight time N/A
Altitude 40000
Route IMVUR N63 SAM N19 ADKIK DCT JOZMA DCT GAPLI/M086F400 DCT OMOKO DCT 47N020W 46N030W 45N040W 44N050W 41N060W DCT MUNEY M202 UKOKA/N0490F400 M202 HOBEE AR6 BITHO
Aircraft B789/H-SDE1E2E3FGHIJ2J3J4J5M1RWXY/LB1D1

Departure

Time N/A
Airport London Gatwick Airport (EGKK)

Arrival

Time 2026-04-29 20:40
Airport Melbourne Orlando International Airport (KMLB)
Time Latitude Longitude Altitude Speed Heading
2026-04-29 19:16 33.41705 -73.14092 39993 ft 430 kts 236°
2026-04-29 19:17 33.37926 -73.19637 39996 ft 429 kts 236°
2026-04-29 19:17 33.34152 -73.25169 39996 ft 429 kts 236°
2026-04-29 19:18 33.30405 -73.30653 39991 ft 429 kts 236°
2026-04-29 19:18 33.26624 -73.36178 39995 ft 429 kts 236°
2026-04-29 19:19 33.22847 -73.41688 39994 ft 428 kts 236°
2026-04-29 19:19 33.19072 -73.47187 39989 ft 428 kts 236°
2026-04-29 19:20 33.15356 -73.52591 39980 ft 427 kts 236°
2026-04-29 19:20 33.11585 -73.58067 39985 ft 427 kts 236°
2026-04-29 19:21 33.07802 -73.63555 39985 ft 431 kts 236°
2026-04-29 19:21 33.03981 -73.69084 39993 ft 431 kts 236°
2026-04-29 19:22 33.00183 -73.74575 39992 ft 428 kts 236°
2026-04-29 19:22 32.96394 -73.80046 39991 ft 428 kts 236°
2026-04-29 19:23 32.92627 -73.85474 39989 ft 428 kts 236°
2026-04-29 19:23 32.88828 -73.90943 39980 ft 428 kts 236°
2026-04-29 19:24 32.85027 -73.96406 39983 ft 430 kts 236°
2026-04-29 19:24 32.81208 -74.01885 39988 ft 431 kts 235°
2026-04-29 19:25 32.77404 -74.07333 39988 ft 426 kts 235°
2026-04-29 19:25 32.73624 -74.12746 39987 ft 426 kts 235°
2026-04-29 19:26 32.69835 -74.18157 39986 ft 426 kts 235°
2026-04-29 19:26 32.66046 -74.23564 39988 ft 426 kts 235°
2026-04-29 19:27 32.62229 -74.29002 39989 ft 430 kts 235°
2026-04-29 19:27 32.58397 -74.34450 39988 ft 430 kts 235°
2026-04-29 19:28 32.54568 -74.39890 39990 ft 429 kts 235°
2026-04-29 19:28 32.51391 -74.44395 39986 ft 428 kts 235°
2026-04-29 19:29 32.47580 -74.49794 39987 ft 426 kts 234°
2026-04-29 19:29 32.43776 -74.55176 39979 ft 427 kts 234°
2026-04-29 19:30 32.39955 -74.60572 39985 ft 429 kts 234°
2026-04-29 19:30 32.36116 -74.65986 39990 ft 430 kts 234°
2026-04-29 19:31 32.32267 -74.71406 39996 ft 430 kts 234°
2026-04-29 19:31 32.28432 -74.76800 39995 ft 428 kts 234°
2026-04-29 19:32 32.24611 -74.82166 39986 ft 427 kts 234°
2026-04-29 19:32 32.20776 -74.87545 40000 ft 431 kts 234°
2026-04-29 19:33 32.16893 -74.92981 40002 ft 434 kts 234°
2026-04-29 19:33 32.13004 -74.98417 40004 ft 433 kts 234°
2026-04-29 19:34 32.09123 -75.03836 40000 ft 432 kts 234°
2026-04-29 19:34 32.05247 -75.09241 40001 ft 431 kts 234°
2026-04-29 19:35 32.01382 -75.14620 39997 ft 429 kts 234°
2026-04-29 19:35 31.97511 -75.20004 39992 ft 434 kts 234°
2026-04-29 19:36 31.93621 -75.25402 40001 ft 435 kts 234°
2026-04-29 19:36 31.89705 -75.30831 40002 ft 435 kts 234°
2026-04-29 19:37 31.85792 -75.36248 40001 ft 434 kts 234°
2026-04-29 19:37 31.81881 -75.41653 40000 ft 434 kts 234°
2026-04-29 19:38 31.77971 -75.47049 39994 ft 433 kts 234°
2026-04-29 19:38 31.74057 -75.52446 39995 ft 436 kts 234°
2026-04-29 19:39 31.70110 -75.57877 40006 ft 437 kts 234°
2026-04-29 19:39 31.66160 -75.63305 40003 ft 437 kts 234°
2026-04-29 19:40 31.62212 -75.68723 40004 ft 436 kts 234°
2026-04-29 19:40 31.58266 -75.74130 40006 ft 436 kts 234°
2026-04-29 19:41 31.54322 -75.79529 39986 ft 436 kts 234°
2026-04-29 19:41 31.50368 -75.84933 40000 ft 438 kts 233°
2026-04-29 19:42 31.46407 -75.90336 40006 ft 439 kts 233°
2026-04-29 19:42 31.42421 -75.95769 40007 ft 439 kts 233°
2026-04-29 19:43 31.38442 -76.01182 40008 ft 439 kts 233°
2026-04-29 19:43 31.34461 -76.06591 40009 ft 438 kts 233°
2026-04-29 19:44 31.30482 -76.11991 40000 ft 438 kts 233°
2026-04-29 19:44 31.26490 -76.17401 40002 ft 440 kts 233°
2026-04-29 19:45 31.22482 -76.22822 40001 ft 441 kts 233°
2026-04-29 19:45 31.18475 -76.28236 40003 ft 440 kts 233°
2026-04-29 19:46 31.14495 -76.33606 40005 ft 440 kts 233°
2026-04-29 19:46 31.10462 -76.39040 40007 ft 440 kts 233°
2026-04-29 19:47 31.06457 -76.44428 40008 ft 439 kts 233°
2026-04-29 19:47 31.02445 -76.49819 40006 ft 442 kts 233°
2026-04-29 19:48 30.98412 -76.55229 40008 ft 442 kts 233°
2026-04-29 19:48 30.94405 -76.60598 40009 ft 442 kts 233°
2026-04-29 19:49 30.90369 -76.65998 40011 ft 442 kts 233°
2026-04-29 19:49 30.86338 -76.71383 40009 ft 442 kts 233°
2026-04-29 19:50 30.82296 -76.76776 40012 ft 441 kts 233°
2026-04-29 19:50 30.78249 -76.82168 40010 ft 444 kts 233°
2026-04-29 19:51 30.74183 -76.87576 40003 ft 443 kts 233°
2026-04-29 19:51 30.70129 -76.92963 40006 ft 442 kts 233°
2026-04-29 19:52 30.66137 -76.98353 40012 ft 437 kts 239°
2026-04-29 19:52 30.63387 -77.04558 40045 ft 432 kts 253°
2026-04-29 19:53 30.61295 -77.11114 40024 ft 433 kts 252°
2026-04-29 19:53 30.59211 -77.17682 40004 ft 434 kts 252°
2026-04-29 19:54 30.56061 -77.27550 40014 ft 433 kts 252°
2026-04-29 19:54 30.53975 -77.34081 40012 ft 431 kts 252°
2026-04-29 19:55 30.51891 -77.40588 40003 ft 430 kts 252°
2026-04-29 19:55 30.49802 -77.47094 40007 ft 431 kts 252°
2026-04-29 19:56 30.47708 -77.53605 40016 ft 431 kts 252°
2026-04-29 19:56 30.45610 -77.60117 40019 ft 431 kts 252°
2026-04-29 19:57 30.43865 -77.65522 40021 ft 430 kts 252°
2026-04-29 19:57 30.41016 -77.72893 40023 ft 434 kts 239°
2026-04-29 19:58 30.36896 -77.78101 40032 ft 447 kts 221°
2026-04-29 19:58 30.31792 -77.82275 40018 ft 450 kts 219°
2026-04-29 19:59 30.26644 -77.86408 40020 ft 450 kts 219°
2026-04-29 19:59 30.21506 -77.90548 40020 ft 450 kts 219°
2026-04-29 20:00 30.16359 -77.94680 40022 ft 450 kts 219°
2026-04-29 20:00 30.11264 -77.98768 40016 ft 445 kts 220°
2026-04-29 20:01 30.06167 -78.02854 40013 ft 443 kts 220°
2026-04-29 20:01 30.01130 -78.06887 40013 ft 444 kts 220°
2026-04-29 20:02 29.96046 -78.10949 40012 ft 445 kts 220°
2026-04-29 20:02 29.91779 -78.14357 40016 ft 446 kts 220°
2026-04-29 20:03 29.85848 -78.19086 40002 ft 446 kts 219°
2026-04-29 20:03 29.80714 -78.23176 40011 ft 451 kts 219°
2026-04-29 20:04 29.75554 -78.27277 40012 ft 450 kts 219°
2026-04-29 20:04 29.70417 -78.31359 40009 ft 448 kts 219°
2026-04-29 20:05 29.65291 -78.35425 40006 ft 447 kts 219°
2026-04-29 20:05 29.60169 -78.39484 39988 ft 448 kts 219°
2026-04-29 20:06 29.55032 -78.43550 40010 ft 450 kts 219°
2026-04-29 20:06 29.49894 -78.47670 40019 ft 451 kts 219°
2026-04-29 20:07 29.44744 -78.51785 40023 ft 450 kts 221°
2026-04-29 20:07 29.40429 -78.56802 40030 ft 439 kts 240°
2026-04-29 20:08 29.38124 -78.61918 40032 ft 433 kts 254°
2026-04-29 20:08 29.35824 -78.69556 40014 ft 434 kts 253°
2026-04-29 20:09 29.33846 -78.76062 40002 ft 431 kts 253°
2026-04-29 20:09 29.31872 -78.82555 40002 ft 431 kts 253°
2026-04-29 20:10 29.29895 -78.89038 40000 ft 431 kts 253°
2026-04-29 20:10 29.27926 -78.95528 40002 ft 431 kts 253°
2026-04-29 20:11 29.25972 -79.02021 40003 ft 431 kts 253°
2026-04-29 20:11 29.24002 -79.08512 39998 ft 432 kts 253°
2026-04-29 20:12 29.22253 -79.15082 40013 ft 433 kts 253°
2026-04-29 20:12 29.20210 -79.21518 39992 ft 431 kts 252°
2026-04-29 20:13 29.19183 -79.24778 39388 ft 431 kts 252°
2026-04-29 20:13 29.18514 -79.26904 39099 ft 428 kts 251°
2026-04-29 20:13 29.17175 -79.31126 38492 ft 424 kts 251°
2026-04-29 20:13 29.16183 -79.34289 37965 ft 421 kts 252°
2026-04-29 20:14 29.15250 -79.37449 37447 ft 418 kts 252°
2026-04-29 20:14 29.14626 -79.39577 37099 ft 416 kts 252°
2026-04-29 20:14 29.13379 -79.43700 36377 ft 414 kts 251°
2026-04-29 20:14 29.12427 -79.46809 35766 ft 415 kts 251°
2026-04-29 20:15 29.11486 -79.49924 35160 ft 415 kts 251°
2026-04-29 20:15 29.10545 -79.53048 34578 ft 415 kts 251°
2026-04-29 20:15 29.09920 -79.55111 34199 ft 415 kts 251°
2026-04-29 20:15 29.08973 -79.58224 33579 ft 415 kts 251°
2026-04-29 20:16 29.08034 -79.61319 33133 ft 410 kts 251°
2026-04-29 20:16 29.07107 -79.64382 32648 ft 406 kts 251°
2026-04-29 20:16 29.06187 -79.67420 32156 ft 403 kts 251°
2026-04-29 20:16 29.05272 -79.70429 31588 ft 400 kts 251°
2026-04-29 20:17 29.04352 -79.73453 30900 ft 403 kts 252°
2026-04-29 20:17 29.03438 -79.76456 30547 ft 397 kts 252°
2026-04-29 20:17 29.02535 -79.79423 30154 ft 394 kts 252°
2026-04-29 20:17 29.01635 -79.82370 29722 ft 391 kts 253°
2026-04-29 20:18 29.00743 -79.85297 29275 ft 389 kts 253°
2026-04-29 20:18 28.99855 -79.88209 28807 ft 388 kts 253°
2026-04-29 20:18 28.98966 -79.91116 28287 ft 388 kts 253°
2026-04-29 20:18 28.98078 -79.94018 27732 ft 387 kts 253°
2026-04-29 20:19 28.97192 -79.96911 27193 ft 384 kts 253°
2026-04-29 20:19 28.96314 -79.99779 26643 ft 382 kts 253°
2026-04-29 20:19 28.95438 -80.02633 26124 ft 379 kts 253°
2026-04-29 20:19 28.94571 -80.05460 25603 ft 376 kts 253°
2026-04-29 20:20 28.93708 -80.08266 25133 ft 373 kts 253°
2026-04-29 20:20 28.92855 -80.11041 24673 ft 369 kts 254°
2026-04-29 20:20 28.92009 -80.13791 24223 ft 365 kts 254°
2026-04-29 20:20 28.91171 -80.16511 23778 ft 362 kts 254°
2026-04-29 20:21 28.90337 -80.19216 23286 ft 360 kts 254°
2026-04-29 20:21 28.89508 -80.21902 22766 ft 358 kts 254°
2026-04-29 20:21 28.88683 -80.24573 22233 ft 356 kts 255°
2026-04-29 20:21 28.87862 -80.27231 21726 ft 354 kts 255°
2026-04-29 20:22 28.87056 -80.29838 21232 ft 352 kts 255°
2026-04-29 20:22 28.86234 -80.32494 20753 ft 350 kts 255°
2026-04-29 20:22 28.85426 -80.35104 20269 ft 348 kts 255°
2026-04-29 20:22 28.84620 -80.37703 19794 ft 346 kts 255°
2026-04-29 20:23 28.83831 -80.40247 19343 ft 344 kts 255°
2026-04-29 20:23 28.82780 -80.42694 18832 ft 350 kts 236°
2026-04-29 20:23 28.81077 -80.44688 18297 ft 352 kts 226°
2026-04-29 20:23 28.79171 -80.46431 17653 ft 350 kts 222°
2026-04-29 20:24 28.77219 -80.48071 17009 ft 347 kts 221°
2026-04-29 20:24 28.75270 -80.49662 16389 ft 343 kts 220°
2026-04-29 20:24 28.73266 -80.51133 15776 ft 342 kts 215°
2026-04-29 20:24 28.71200 -80.52437 15180 ft 335 kts 213°
2026-04-29 20:25 28.69153 -80.53661 14589 ft 333 kts 213°
2026-04-29 20:25 28.67091 -80.54871 14004 ft 334 kts 213°
2026-04-29 20:25 28.65023 -80.56069 13388 ft 334 kts 212°
2026-04-29 20:25 28.62950 -80.57268 12760 ft 334 kts 212°
2026-04-29 20:26 28.60888 -80.58474 12127 ft 333 kts 212°
2026-04-29 20:26 28.58823 -80.59666 11533 ft 333 kts 210°
2026-04-29 20:26 28.56750 -80.60735 10926 ft 322 kts 208°
2026-04-29 20:26 28.54731 -80.61743 10327 ft 312 kts 207°
2026-04-29 20:27 28.52777 -80.62734 9740 ft 301 kts 211°
2026-04-29 20:27 28.51689 -80.63633 9308 ft 288 kts 232°
2026-04-29 20:27 28.50236 -80.66077 8485 ft 273 kts 244°
2026-04-29 20:27 28.49341 -80.67957 7893 ft 267 kts 243°
2026-04-29 20:28 28.48063 -80.69456 7359 ft 272 kts 209°
2026-04-29 20:28 28.46266 -80.70130 6901 ft 273 kts 197°
2026-04-29 20:28 28.44490 -80.70789 6440 ft 267 kts 212°
2026-04-29 20:28 28.42976 -80.71980 5955 ft 263 kts 220°
2026-04-29 20:29 28.41558 -80.73279 5475 ft 261 kts 222°
2026-04-29 20:29 28.40167 -80.74599 4998 ft 259 kts 223°
2026-04-29 20:29 28.38793 -80.75916 4514 ft 258 kts 223°
2026-04-29 20:29 28.37429 -80.77222 4028 ft 256 kts 223°
2026-04-29 20:30 28.36100 -80.78490 3546 ft 249 kts 223°
2026-04-29 20:30 28.34803 -80.79731 3161 ft 237 kts 221°
2026-04-29 20:30 28.33571 -80.80949 2897 ft 234 kts 222°
2026-04-29 20:30 28.32380 -80.82167 2704 ft 228 kts 223°
2026-04-29 20:31 28.31229 -80.83354 2556 ft 219 kts 223°
2026-04-29 20:31 28.30143 -80.84481 2474 ft 204 kts 223°
2026-04-29 20:31 28.29095 -80.85487 2329 ft 193 kts 211°
2026-04-29 20:31 28.27805 -80.85682 2122 ft 189 kts 173°
2026-04-29 20:32 28.26510 -80.85563 2013 ft 186 kts 179°
2026-04-29 20:32 28.25232 -80.85613 2011 ft 185 kts 183°
2026-04-29 20:32 28.23951 -80.85714 2017 ft 184 kts 183°
2026-04-29 20:32 28.22667 -80.85813 2016 ft 186 kts 183°
2026-04-29 20:33 28.21376 -80.85908 2019 ft 185 kts 183°
2026-04-29 20:33 28.20099 -80.85999 2013 ft 179 kts 183°
2026-04-29 20:33 28.18904 -80.86087 1999 ft 168 kts 183°
2026-04-29 20:33 28.17739 -80.86171 1998 ft 166 kts 183°
2026-04-29 20:34 28.16597 -80.86254 2001 ft 165 kts 183°
2026-04-29 20:34 28.15443 -80.86337 2001 ft 166 kts 183°
2026-04-29 20:34 28.14296 -80.86420 2002 ft 165 kts 182°
2026-04-29 20:34 28.13154 -80.86502 2014 ft 165 kts 183°
2026-04-29 20:35 28.12007 -80.86584 1989 ft 165 kts 183°
2026-04-29 20:35 28.10866 -80.86662 1989 ft 165 kts 181°
2026-04-29 20:35 28.09821 -80.86230 1949 ft 164 kts 139°
2026-04-29 20:35 28.09288 -80.85107 1946 ft 167 kts 94°
2026-04-29 20:36 28.09416 -80.83810 1986 ft 168 kts 89°
2026-04-29 20:36 28.09346 -80.82493 1994 ft 167 kts 90°
2026-04-29 20:36 28.09413 -80.81175 2005 ft 170 kts 89°
2026-04-29 20:36 28.09465 -80.79845 2010 ft 168 kts 88°
2026-04-29 20:37 28.09528 -80.78522 1992 ft 169 kts 88°
2026-04-29 20:37 28.09592 -80.77200 1830 ft 168 kts 88°
2026-04-29 20:37 28.09656 -80.75920 1621 ft 157 kts 88°
2026-04-29 20:37 28.09715 -80.74683 1430 ft 156 kts 88°
2026-04-29 20:38 28.09770 -80.73506 1246 ft 146 kts 87°
2026-04-29 20:38 28.09829 -80.72319 1075 ft 153 kts 87°
2026-04-29 20:38 28.09886 -80.71127 884 ft 152 kts 87°
2026-04-29 20:38 28.09946 -80.69952 701 ft 144 kts 87°
2026-04-29 20:39 28.09991 -80.68835 519 ft 145 kts 86°
2026-04-29 20:39 28.10053 -80.67704 357 ft 138 kts 84°
2026-04-29 20:39 28.10114 -80.66592 196 ft 150 kts 87°
2026-04-29 20:39 28.10160 -80.65445 44 ft 134 kts 88°
2026-04-29 20:40 28.10205 -80.64575 39 ft 84 kts 87°
2026-04-29 20:40 28.10227 -80.64119 38 ft 33 kts 87°
2026-04-29 20:40 28.10233 -80.63980 37 ft 15 kts 87°
2026-04-29 20:40 28.10238 -80.63865 37 ft 14 kts 87°
2026-04-29 20:41 28.10242 -80.63752 38 ft 15 kts 89°
2026-04-29 20:41 28.10217 -80.63645 38 ft 13 kts 124°
2026-04-29 20:41 28.10139 -80.63538 35 ft 20 kts 131°
2026-04-29 20:41 28.10044 -80.63415 36 ft 18 kts 133°
2026-04-29 20:42 28.09971 -80.63328 39 ft 15 kts 133°
2026-04-29 20:42 28.09925 -80.63269 37 ft 4 kts 121°
2026-04-29 20:42 28.09928 -80.63241 36 ft 6 kts 71°
2026-04-29 20:42 28.09928 -80.63230 36 ft 2 kts 102°
2026-04-29 20:43 28.09911 -80.63206 36 ft 6 kts 141°
2026-04-29 20:43 28.09877 -80.63181 37 ft 0 kts 147°
2026-04-29 20:43 28.09870 -80.63176 37 ft 2 kts 148°